• In Deutschland
  • Länderverzeichnis
  • Für 7 Tage
  • Wassertemperatur
  • Satellitenkarten
  • Wetterkarte
  • Widgets
  • user-avatar
    Anmelden

    Stündliche Wetter Biskira

    Heute, 23 Mai, Mittwoch

    Zeit Temperatur Niederschläge Wind Luftdruck Luftfeuchtigkeit
    00:00 +27°C° 0 mm 2 m/S 753 mmHg 33%
    01:00 +27°C° 0 mm 2 m/S 753 mmHg 35%
    02:00 +26°C° 0 mm 2 m/S 753 mmHg 37%
    03:00 +26°C° 0 mm 2 m/S 753 mmHg 39%
    04:00 +26°C° 0 mm 2 m/S 753 mmHg 39%
    05:00 +26°C° 0 mm 2 m/S 753 mmHg 38%
    06:00 +27°C° 0 mm 2 m/S 753 mmHg 37%
    07:00 +27°C° 0 mm 3 m/S 754 mmHg 38%
    08:00 +28°C° 0 mm 4 m/S 754 mmHg 39%
    09:00 +29°C° 0 mm 5 m/S 754 mmHg 40%
    10:00 +30°C° 0 mm 5 m/S 754 mmHg 37%
    11:00 +32°C° 0 mm 5 m/S 754 mmHg 34%
    12:00 +33°C° 0 mm 4 m/S 754 mmHg 31%
    13:00 +33°C° 0 mm 4 m/S 753 mmHg 30%
    14:00 +33°C° 0 mm 3 m/S 753 mmHg 29%
    15:00 +34°C° 0 mm 3 m/S 752 mmHg 27%
    16:00 +34°C° 0 mm 3 m/S 753 mmHg 28%
    17:00 +34°C° 0 mm 3 m/S 753 mmHg 28%
    18:00 +33°C° 0 mm 3 m/S 753 mmHg 28%
    19:00 +33°C° 0 mm 3 m/S 753 mmHg 30%
    20:00 +31°C° 0 mm 3 m/S 754 mmHg 32%
    21:00 +31°C° 0 mm 3 m/S 754 mmHg 34%
    22:00 +30°C° 0 mm 3 m/S 754 mmHg 35%
    23:00 +30°C° 0 mm 3 m/S 754 mmHg 36%

    Morgen, 24 Mai, Donnerstag

    Zeit Temperatur Niederschläge Wind Luftdruck Luftfeuchtigkeit
    00:00 +29°C° 0 mm 3 m/S 754 mmHg 38%
    01:00 +28°C° 0 mm 3 m/S 753 mmHg 39%
    02:00 +28°C° 0 mm 4 m/S 753 mmHg 40%
    03:00 +28°C° 0 mm 4 m/S 753 mmHg 41%
    04:00 +28°C° 0 mm 4 m/S 753 mmHg 42%
    05:00 +28°C° 0 mm 3 m/S 753 mmHg 42%
    06:00 +28°C° 0 mm 3 m/S 753 mmHg 42%
    07:00 +29°C° 0 mm 4 m/S 754 mmHg 40%
    08:00 +30°C° 0 mm 4 m/S 754 mmHg 38%
    09:00 +32°C° 0 mm 4 m/S 754 mmHg 36%
    10:00 +33°C° 0 mm 4 m/S 754 mmHg 33%
    11:00 +34°C° 0 mm 4 m/S 753 mmHg 30%
    12:00 +35°C° 0 mm 4 m/S 753 mmHg 27%
    13:00 +35°C° 0 mm 4 m/S 753 mmHg 25%
    14:00 +36°C° 0 mm 4 m/S 752 mmHg 24%
    15:00 +37°C° 0 mm 4 m/S 752 mmHg 22%
    16:00 +36°C° 0 mm 4 m/S 752 mmHg 22%
    17:00 +36°C° 0 mm 4 m/S 752 mmHg 22%
    18:00 +36°C° 0 mm 3 m/S 752 mmHg 22%
    19:00 +35°C° 0 mm 3 m/S 752 mmHg 23%
    20:00 +34°C° 0 mm 3 m/S 752 mmHg 25%
    21:00 +33°C° 0 mm 3 m/S 752 mmHg 26%
    22:00 +33°C° 0 mm 3 m/S 752 mmHg 27%
    23:00 +33°C° 0 mm 3 m/S 752 mmHg 27%

    übermorgen, 25 Mai, Freitag

    Zeit Temperatur Niederschläge Wind Luftdruck Luftfeuchtigkeit
    00:00 +32°C° 0 mm 4 m/S 751 mmHg 27%
    01:00 +30°C° 0 mm 3 m/S 751 mmHg 28%
    02:00 +30°C° 0 mm 3 m/S 751 mmHg 30%
    03:00 +29°C° 0 mm 3 m/S 751 mmHg 31%
    04:00 +29°C° 0 mm 4 m/S 751 mmHg 32%
    05:00 +29°C° 0 mm 4 m/S 752 mmHg 33%
    06:00 +29°C° 0 mm 4 m/S 752 mmHg 34%
    07:00 +32°C° 0 mm 5 m/S 752 mmHg 30%
    08:00 +33°C° 0 mm 6 m/S 752 mmHg 26%
    09:00 +35°C° 0 mm 7 m/S 752 mmHg 22%
    10:00 +36°C° 0 mm 7 m/S 752 mmHg 20%
    11:00 +38°C° 0 mm 7 m/S 751 mmHg 18%
    12:00 +40°C° 0 mm 8 m/S 751 mmHg 16%
    13:00 +40°C° 0 mm 8 m/S 751 mmHg 15%
    14:00 +40°C° 0 mm 8 m/S 750 mmHg 14%
    15:00 +41°C° 0 mm 8 m/S 749 mmHg 13%
    16:00 +40°C° 0 mm 7 m/S 749 mmHg 14%
    17:00 +40°C° 0 mm 7 m/S 749 mmHg 14%
    18:00 +39°C° 0 mm 6 m/S 749 mmHg 15%
    19:00 +38°C° 0 mm 6 m/S 749 mmHg 17%
    20:00 +36°C° 0 mm 7 m/S 750 mmHg 19%
    21:00 +35°C° 0 mm 7 m/S 750 mmHg 21%
    22:00 +35°C° 0 mm 6 m/S 750 mmHg 22%
    23:00 +34°C° 0 mm 6 m/S 750 mmHg 23%

    26 Mai, Samstag

    Zeit Temperatur Niederschläge Wind Luftdruck Luftfeuchtigkeit
    00:00 +34°C° 0 mm 6 m/S 750 mmHg 24%
    01:00 +33°C° 0 mm 6 m/S 750 mmHg 27%
    02:00 +32°C° 0 mm 6 m/S 750 mmHg 29%
    03:00 +32°C° 0 mm 6 m/S 750 mmHg 32%
    04:00 +32°C° 0 mm 6 m/S 751 mmHg 32%
    05:00 +32°C° 0 mm 6 m/S 751 mmHg 32%
    06:00 +32°C° 0 mm 6 m/S 752 mmHg 32%
    07:00 +33°C° 0,1 mm 6 m/S 752 mmHg 29%
    08:00 +33°C° 0,1 mm 6 m/S 752 mmHg 26%
    09:00 +34°C° 0,1 mm 6 m/S 753 mmHg 24%
    10:00 +35°C° 0,1 mm 6 m/S 752 mmHg 22%
    11:00 +36°C° 0,1 mm 5 m/S 752 mmHg 20%
    12:00 +37°C° 0,1 mm 5 m/S 752 mmHg 19%
    13:00 +39°C° 0 mm 5 m/S 752 mmHg 18%
    14:00 +38°C° 0 mm 4 m/S 751 mmHg 18%
    15:00 +40°C° 0 mm 4 m/S 751 mmHg 17%
    16:00 +38°C° 0 mm 4 m/S 751 mmHg 18%
    17:00 +38°C° 0 mm 4 m/S 750 mmHg 18%
    18:00 +39°C° 0 mm 5 m/S 750 mmHg 19%
    19:00 +37°C° 0 mm 4 m/S 751 mmHg 21%
    20:00 +36°C° 0 mm 3 m/S 751 mmHg 22%
    21:00 +35°C° 0 mm 3 m/S 752 mmHg 24%
    22:00 +34°C° 0 mm 3 m/S 752 mmHg 24%
    23:00 +34°C° 0 mm 3 m/S 752 mmHg 25%

    27 Mai, Sonntag

    Zeit Temperatur Niederschläge Wind Luftdruck Luftfeuchtigkeit
    00:00 +34°C° 0 mm 3 m/S 752 mmHg 25%
    01:00 +33°C° 0 mm 3 m/S 752 mmHg 26%
    02:00 +32°C° 0 mm 2 m/S 752 mmHg 28%
    03:00 +31°C° 0 mm 2 m/S 752 mmHg 29%
    04:00 +31°C° 0 mm 2 m/S 752 mmHg 29%
    05:00 +31°C° 0 mm 2 m/S 752 mmHg 30%
    06:00 +31°C° 0 mm 3 m/S 752 mmHg 30%
    07:00 +33°C° 0 mm 4 m/S 752 mmHg 27%
    08:00 +34°C° 0 mm 5 m/S 752 mmHg 23%
    09:00 +35°C° 0 mm 6 m/S 752 mmHg 20%
    10:00 +36°C° 0 mm 7 m/S 752 mmHg 19%
    11:00 +38°C° 0 mm 7 m/S 752 mmHg 17%
    12:00 +39°C° 0 mm 7 m/S 752 mmHg 16%
    13:00 +39°C° 0 mm 7 m/S 751 mmHg 16%
    14:00 +39°C° 0 mm 7 m/S 750 mmHg 15%
    15:00 +40°C° 0 mm 7 m/S 750 mmHg 15%
    16:00 +39°C° 0 mm 7 m/S 749 mmHg 16%
    17:00 +39°C° 0 mm 7 m/S 749 mmHg 17%
    18:00 +38°C° 0 mm 7 m/S 749 mmHg 17%
    19:00 +38°C° 0 mm 6 m/S 749 mmHg 19%
    20:00 +36°C° 0 mm 5 m/S 750 mmHg 21%
    21:00 +35°C° 0 mm 4 m/S 750 mmHg 23%
    22:00 +34°C° 0 mm 5 m/S 750 mmHg 24%
    23:00 +33°C° 0 mm 6 m/S 749 mmHg 25%

    28 Mai, Montag

    Zeit Temperatur Niederschläge Wind Luftdruck Luftfeuchtigkeit
    00:00 +33°C° 0 mm 7 m/S 749 mmHg 26%
    01:00 +32°C° 0 mm 7 m/S 749 mmHg 27%
    02:00 +30°C° 0 mm 7 m/S 749 mmHg 27%
    03:00 +30°C° 0 mm 7 m/S 749 mmHg 28%
    04:00 +30°C° 0,1 mm 7 m/S 749 mmHg 28%
    05:00 +30°C° 0,1 mm 7 m/S 749 mmHg 27%
    06:00 +30°C° 0,1 mm 7 m/S 749 mmHg 27%
    07:00 +32°C° 0 mm 8 m/S 749 mmHg 25%
    08:00 +34°C° 0 mm 9 m/S 749 mmHg 23%
    09:00 +36°C° 0 mm 10 m/S 749 mmHg 21%
    10:00 +37°C° 0 mm 10 m/S 748 mmHg 20%
    11:00 +39°C° 0 mm 10 m/S 748 mmHg 19%
    12:00 +40°C° 0 mm 10 m/S 747 mmHg 18%
    13:00 +40°C° 0 mm 10 m/S 747 mmHg 18%
    14:00 +42°C° 0 mm 10 m/S 746 mmHg 18%
    15:00 +42°C° 0 mm 10 m/S 746 mmHg 18%
    16:00 +40°C° 0 mm 10 m/S 745 mmHg 19%
    17:00 +40°C° 0 mm 10 m/S 745 mmHg 19%
    18:00 +39°C° 0 mm 10 m/S 745 mmHg 19%
    19:00 +38°C° 0 mm 10 m/S 745 mmHg 21%
    20:00 +37°C° 0 mm 9 m/S 746 mmHg 23%
    21:00 +35°C° 0 mm 9 m/S 746 mmHg 25%
    22:00 +34°C° 0 mm 8 m/S 746 mmHg 26%
    23:00 +33°C° 0 mm 8 m/S 746 mmHg 27%
    Mehr zeigen